Gallup, NM

2:29 PM MST on January 23, 2017 (GMT -0700)
Gallup Municipal

Weather History for KGUP - November, 2013

Change the Weather History Date:

Wednesday, November 6, 2013

  Actual Average Record
Temperature  
Mean Temperature 33 °F -  
Max Temperature 52 °F 54 °F 73 °F (1980)
Min Temperature 14 °F 23 °F 1 °F (1993)
Degree Days  
Heating Degree Days 32    
Moisture  
Dew Point 15 °F    
Average Humidity 60    
Maximum Humidity 88    
Minimum Humidity 17    
Precipitation  
Precipitation 0.00 in - - ()
Sea Level Pressure  
Sea Level Pressure 30.51 in    
Wind  
Wind Speed 1 mph (NE)    
Max Wind Speed 9 mph    
Max Gust Speed -    
Visibility 10 miles    
Events      
Averages and records for this station are not official NWS values.
T = Trace of Precipitation, MM = Missing Value Source: NWS Daily Summary

Daily Weather History Graph

Daily Weather History Graph

Search for Another Location

Airport or City:

Trip Planner

Search our weather history database for the weather conditions in past years. The results will help you decide how hot, cold, wet, or windy it might be!

Date:

Astronomy

Nov. 06, 2013 Rise Set
Actual Time 6:42 AM MST 5:15 PM MST
Civil Twilight 6:15 AM MST 5:41 PM MST
Nautical Twilight 5:45 AM MST 6:12 PM MST
Astronomical Twilight 5:15 AM MST 6:41 PM MST
Moon 9:57 AM MST (11/6) 8:25 PM MST (11/6)
Length of Visible Light 11h 26m
Length of Day
10h 33m
Waxing Crescent, 14% of the Moon is Illuminated
Nov 6
Waxing Crescent
Nov 9
First Quarter
Nov 17
Full
Nov 25
Last Quarter
Dec 2
New

Hourly Weather History & Observations

Time (MST) Temp. Windchill Dew Point Humidity Pressure Visibility Wind Dir Wind Speed Gust Speed Precip Events Conditions
12:53 AM 17.1 °F 11.7 °F 14.0 °F 88% 30.40 in 10.0 mi ENE 3.5 mph - N/A   Clear
1:53 AM 18.0 °F - 15.1 °F 88% 30.38 in 10.0 mi Calm Calm - N/A   Clear
2:53 AM 14.0 °F 8.2 °F 10.9 °F 88% 30.40 in 10.0 mi East 3.5 mph - N/A   Clear
3:53 AM 17.1 °F - 12.9 °F 84% 30.43 in 10.0 mi Calm Calm - N/A   Clear
4:53 AM 16.0 °F - 12.0 °F 84% 30.48 in 10.0 mi Calm Calm - N/A   Clear
5:53 AM 15.1 °F - 12.0 °F 88% 30.54 in 10.0 mi Calm Calm - N/A   Clear
6:53 AM 16.0 °F - 12.0 °F 84% 30.57 in 10.0 mi Calm Calm - N/A   Clear
7:53 AM 19.9 °F - 16.0 °F 85% 30.61 in 10.0 mi Calm Calm - N/A   Clear
8:53 AM 28.9 °F - 19.0 °F 67% 30.57 in 10.0 mi Calm Calm - N/A   Clear
9:53 AM 32.0 °F - 18.0 °F 56% 30.57 in 10.0 mi Calm Calm - N/A   Clear
10:53 AM 37.0 °F - 15.1 °F 41% 30.53 in 10.0 mi Calm Calm - N/A   Clear
11:53 AM 43.0 °F - 12.9 °F 30% 30.49 in 10.0 mi Calm Calm - N/A   Clear
12:53 PM 46.0 °F - 6.1 °F 20% 30.46 in 10.0 mi Calm Calm - N/A   Clear
1:53 PM 50.0 °F - 6.1 °F 17% 30.43 in 10.0 mi Calm Calm - N/A   Clear
2:53 PM 52.0 °F - 10.9 °F 19% 30.44 in 10.0 mi Calm Calm - N/A   Clear
3:53 PM 51.1 °F - 15.1 °F 24% 30.42 in 10.0 mi ENE 5.8 mph - N/A   Clear
4:53 PM 48.0 °F - 15.1 °F 27% 30.46 in 10.0 mi NNE 9.2 mph - N/A   Clear
5:53 PM 41.0 °F 38.0 °F 15.1 °F 35% 30.54 in 10.0 mi NNE 4.6 mph - N/A   Clear
6:53 PM 37.0 °F - 17.1 °F 44% 30.58 in 10.0 mi Calm Calm - N/A   Clear
7:53 PM 32.0 °F - 19.9 °F 61% 30.61 in 10.0 mi Calm Calm - N/A   Clear
8:53 PM 28.0 °F - 19.9 °F 72% 30.58 in 10.0 mi Calm Calm - N/A   Clear
9:53 PM 27.0 °F - 19.9 °F 75% 30.58 in 10.0 mi Calm Calm - N/A   Clear
10:53 PM 24.1 °F - 19.9 °F 84% 30.57 in 10.0 mi Calm Calm - N/A   Clear
11:53 PM 24.1 °F - 19.9 °F 84% 30.51 in 10.0 mi Calm Calm - N/A   Clear